Retour au catalogue

CZ-3C DEB

ActifGTO
NORAD 40834·DEBRIS·🇨🇳 China

Lancé Oct 31, 2010 depuis Xichang Satellite Launch Center

Loading…

TLE

PériméSource: Space-Track

Époque: Sep 11, 2026, 18:32 UTC

1 40834U 10057BB  26254.77278040  .00000027  00000-0  73375-3 0  9993
2 40834  19.8921 107.9284 7198951 144.6229 296.7783  2.19674302 92412

Suivez CZ-3C DEB en temps réel avec AllMySat

Download on the App Store